Find DCS-1

NORAD ID: 67263 Int'l Des: 2025-313 Owner: TELTN Country: TN operational
LEOCIRCULARRETROGRADESSO

实时位置

正在加载3D地球...

关于 DCS-1

正在加载描述...

即将过境

Passes for default location (London). Set your location on the main map for personalized predictions.

高度历史

Loading altitude history...

两行轨道根数

1 67263U 25313R 26119.75870795 .00009765 00000-0 42217-3 0 9991
2 67263 97.3962 195.2197 0015353 168.2440 191.9158 15.22559567 18581
Epoch: Apr 29, 2026 • Age: 30 hours

当前状态

高度 510.3 km
速度 7.60 km/s
星下点 6.03°N, 26.34°W
发射日期 Dec 28, 2025
运行时间 0.3 years
类型 other

技术详情

分类 Payload
质量 1.00 kg
干质量 1.00 kg
总质量 1.00 kg
长度 0.10 m
直径 0.10 m
跨度 0.10 m
形状 Box
制造商 SPUT
平台类型 Cubesat 1U
阶段状态 In Orbit
所有者/国家 TELTN/TN

Most Searched